Location: Newark
(15.4608°S, 41.1635°W)
Time: 20:11:41
(UTC+00:00)

N. Korean satellite - Pass Details

Date: 24 June 2021
Orbit: 451 x 497 km, 97.2° (Epoch: 28 July)

Event Time Altitude Azimuth Distance (km) Brightness Sun altitude
Rises 07:36:08 0° 9° (N) 2,570 10.6 -22.1°
Reaches altitude 10° 07:38:12 10° 7° (N) 1,694 9.6 -21.6°
Maximum altitude 07:41:51 77° 282° (WNW) 515 6.4 -20.8°
Enters shadow 07:42:09 71° 231° (SW) 531 6.4 -20.7°
